sat.trackr.live / text

‹ back to catalog

GAOFEN-5 01

NORAD 43461 · 2018-043A

PAYLOAD ACTIVE UNKNOWN

§ Identity

Operator
Country
PRC
Launch date
2018-05-08
Launch site
TAISC
Launch vehicle
Mass (kg)
RCS (m²)

Purposes: earth_obs

External: N2YO · Heavens-Above · Gunter

§ Orbital elements

Epoch: 2026-05-25T04:20:27.690720Z

Period
98.59 min
Inclination
98.4558°
Eccentricity
0.0002588
Mean motion
14.60586491 rev/d
Perigee alt
689.5 km
Apogee alt
693.1 km
Semi-major
7,069.4 km
B*
7.1035e-5
RAAN
116.2865°
Arg perigee
125.0096°
Mean anomaly
235.1347°
Rev number
42,833

§ Raw data

GAOFEN-5 011 43461U 18043A   26145.18087605  .00000296  00000+0  71035-4 0  99932 43461  98.4558 116.2865 0002588 125.0096 235.1347 14.60586491428333

JSON: /api/v1/satellites/43461 · /tle

For live sub-satellite position, see the globe view (requires WebGL).

§ Visibility from observer

Set your observer location to see the next 7 days of passes ≥ 10°. The values pass through the URL so the page stays shareable.

No JS? Fill the form by hand. The geolocation button needs JavaScript.